Home   Weather   Odesa   Past weeks
Flag for Ukraine

Past Weather in Odesa, Ukraine — Yesterday and Last 2 Weeks

Now
68 °F

Sunny.


Feels Like: 68 °F
Forecast: 72 / 63 °F
Wind: 6 mph from East

Location: Odesa Airport

Current Time: Jun 7, 2020 at 8:56:20 am

Latest Report: Jun 7, 2020 at 8:00 am


Visibility: 10 mi

Pressure: 29.89 "Hg

Humidity: 83%

Dew Point: 63 °F

Location of OdesaLocation

Past Weather in Odesa — Graph

°F

Odesa Temperature Yesterday

Maximum temperature yesterday: 72 °F (at 12:30 pm)
Minimum temperature yesterday: 61 °F (at 12:00 am)
Average temperature yesterday: 66 °F

High & Low Weather Summary for the Past Weeks

 TemperatureHumidityPressure
High73 °F (Jun 5, 11:30 am)100% (May 25, 1:00 am)30.15 "Hg (May 25, 1:00 am)
Low45 °F (Jun 2, 3:00 am)25% (May 24, 1:30 pm)29.68 "Hg (May 28, 3:30 pm)
Average59 °F77%29.88 "Hg
* Reported May 23 7:00 am — Jun 7 7:30 am, Odesa. Weather by CustomWeather, © 2020

Note: Actual official high and low records may vary slightly from our data, if they occured in-between our weather recording intervals... More about our weather records

Odesa Weather History for the Previous 24 Hours

Scroll right to see more
 ConditionsComfort  
Time TempWeatherWind HumidityBarometerVisibility
7:30 am
Sun, Jun 7
66 °FSunny.3 mph94%29.89 "Hg10 mi
7:00 am64 °FSunny.1 mph100%29.89 "Hg10 mi
6:50 am63 °FClear.No wind100%29.89 "Hg4 mi
6:30 am61 °FFog.1 mph100%29.89 "Hg2 mi
6:13 am59 °FRain. Cloudy.1 mph100%29.89 "Hg2 mi
5:30 am57 °FRain. Cloudy.1 mph100%29.92 "Hg0 mi
5:24 am59 °FRain. Cloudy.1 mph100%29.92 "Hg1 mi
5:00 am59 °FRain. Overcast.1 mph100%29.89 "Hg1 mi
4:30 am59 °FRain. Overcast.No wind100%29.89 "Hg1 mi
4:04 am61 °FFog.3 mph100%29.92 "Hg2 mi
3:49 am63 °FFog.3 mph100%29.92 "Hg2 mi
3:30 am63 °FFog.3 mph100%29.92 "Hg1 mi
3:00 am63 °FFog.1 mph100%29.92 "Hg1 mi
2:38 am63 °FMild.1 mph100%29.92 "Hg1 mi
2:00 am63 °FRain. Overcast.3 mph100%29.92 "Hg1 mi
1:44 am63 °FMild.1 mph100%29.92 "Hg1 mi
1:30 am61 °FCool.3 mph100%29.92 "Hg1 mi
1:09 am61 °FCool.1 mph100%29.92 "Hg1 mi
12:30 am61 °FCool.No wind100%29.92 "Hg1 mi
12:22 am59 °FCool.3 mph100%29.92 "Hg1 mi
12:00 am59 °FRain. Overcast.No wind100%29.92 "Hg1 mi
11:30 pm
Sat, Jun 6
61 °FFog.1 mph94%29.92 "Hg3 mi
11:00 pm61 °FClear.1 mph100%29.92 "Hg4 mi
10:30 pm63 °FClear.3 mph94%29.92 "Hg10 mi
10:00 pm63 °FClear.6 mph94%29.92 "Hg10 mi
9:30 pm63 °FClear.1 mph94%29.89 "Hg10 mi
9:00 pm61 °FClear.3 mph100%29.89 "Hg10 mi
8:30 pm63 °FSunny.6 mph94%29.89 "Hg10 mi
8:00 pm64 °FSunny.8 mph88%29.89 "Hg10 mi
7:30 pm66 °FSunny.8 mph88%29.89 "Hg10 mi
7:00 pm66 °FSunny.10 mph83%29.89 "Hg10 mi
6:30 pm70 °FSunny.8 mph73%29.89 "Hg10 mi
6:00 pm70 °FSunny.10 mph73%29.89 "Hg10 mi
5:30 pm72 °FSunny.13 mph69%29.92 "Hg10 mi
5:00 pm72 °FSunny.13 mph69%29.92 "Hg10 mi
4:30 pm70 °FSunny.13 mph78%29.92 "Hg10 mi
4:00 pm72 °FSunny.15 mph73%29.92 "Hg10 mi
3:30 pm72 °FSunny.13 mph69%29.92 "Hg10 mi
3:00 pm72 °FSunny.15 mph73%29.95 "Hg10 mi
2:30 pm72 °FPassing clouds.15 mph69%29.95 "HgN/A
2:00 pm72 °FSunny.15 mph69%29.92 "Hg10 mi
1:30 pm72 °FSunny.15 mph69%29.95 "Hg10 mi
1:00 pm72 °FSunny.15 mph69%29.92 "Hg10 mi
12:30 pm72 °FSunny.15 mph69%29.92 "Hg10 mi
12:00 pm70 °FSunny.17 mph73%29.92 "Hg10 mi
11:30 am70 °FSunny.15 mph73%29.92 "Hg10 mi
11:00 am70 °FPassing clouds.15 mph73%29.92 "HgN/A
10:30 am70 °FSunny.15 mph73%29.92 "Hg10 mi
10:00 am70 °FSunny.17 mph73%29.92 "Hg10 mi
9:30 am68 °FSunny.15 mph73%29.92 "Hg10 mi
9:00 am68 °FSunny.15 mph78%29.92 "Hg10 mi
8:30 am68 °FSunny.15 mph73%29.92 "Hg10 mi
8:00 am66 °FSunny.15 mph78%29.89 "Hg10 mi
Weather by CustomWeather, © 2020

See weather overview

Advertising